This demonstration page uses our WeatherBlox Daily Observations layout. Learn more.

Left ArrowRight Arrow

Hourly Observations for February 28, 2018

Temp ( °F °C ) Dew Point ( °F °C ) Humidity (%) Winds ( mph kmh ) Pressure ( in mb ) Visibility ( mi km ) Precip ( " mm )
12:15 am 00:15 Clear 43 6 32 0 66 66 S 6 9 30.24 1024 10 16.0934 0 0
12:35 am 00:35 Clear 45 7 32 0 61 61 S 7 11 30.24 1024 10 16.0934 0 0
12:55 am 00:55 Clear 43 6 32 0 66 66 S 5 7 30.24 1024 10 16.0934 0 0
1:15 am 01:15 Clear 41 5 32 0 70 70 S 5 7 30.24 1024 10 16.0934 0 0
1:35 am 01:35 Clear 41 5 32 0 70 70 S 3 6 30.24 1024 10 16.0934 0 0
1:55 am 01:55 Clear 41 5 32 0 70 70 S 5 7 30.24 1024 10 16.0934 0 0
2:15 am 02:15 Clear 41 5 32 0 70 70 SSW 6 9 30.24 1024 10 16.0934 0 0
2:35 am 02:35 Clear 41 5 32 0 70 70 S 6 9 30.24 1024 10 16.0934 0 0
2:55 am 02:55 Clear 41 5 32 0 70 70 SSW 5 7 30.24 1024 10 16.0934 0 0
3:15 am 03:15 Clear 41 5 32 0 70 70 SSW 5 7 30.21 1023 10 16.0934 0 0
3:35 am 03:35 Clear 41 5 32 0 70 70 Calm 30.18 1022 10 16.0934 0 0
3:55 am 03:55 Clear 41 5 32 0 70 70 Calm 30.18 1022 10 16.0934 0 0
4:15 am 04:15 Clear 41 5 32 0 70 70 Calm 30.18 1022 10 16.0934 0 0
4:35 am 04:35 Clear 41 5 32 0 70 70 S 3 6 30.18 1022 10 16.0934 0 0
4:55 am 04:55 Clear 41 5 32 0 70 70 S 3 6 30.18 1022 10 16.0934 0 0
5:15 am 05:15 Clear 41 5 32 0 70 70 SSW 5 7 30.18 1022 10 16.0934 0 0
5:35 am 05:35 Clear 41 5 32 0 70 70 SSW 5 7 30.18 1022 10 16.0934 0 0
5:55 am 05:55 Clear 41 5 32 0 70 70 SSW 5 7 30.18 1022 10 16.0934 0 0
6:15 am 06:15 Clear 41 5 32 0 70 70 S 3 6 30.18 1022 10 16.0934 0 0
6:35 am 06:35 Clear 41 5 32 0 70 70 S 5 7 30.18 1022 10 16.0934 0 0
6:55 am 06:55 Sunny 41 5 32 0 70 70 SSW 5 7 30.18 1022 10 16.0934 0 0
7:15 am 07:15 Sunny 41 5 32 0 70 70 S 3 6 30.18 1022 10 16.0934 0 0
7:35 am 07:35 Sunny 41 5 34 1 76 76 SSW 3 6 30.18 1022 10 16.0934 0 0
7:55 am 07:55 Sunny 41 5 34 1 76 76 S 5 7 30.18 1022 10 16.0934 0 0
8:15 am 08:15 Sunny 43 6 34 1 71 71 SSW 7 11 30.18 1022 10 16.0934 0 0
8:35 am 08:35 Sunny 43 6 34 1 71 71 SSW 7 11 30.15 1021 10 16.0934 0 0
8:55 am 08:55 Sunny 45 7 34 1 66 66 SSW 9 15 30.15 1021 10 16.0934 0 0
9:15 am 09:15 Sunny 45 7 34 1 66 66 S 9 15 30.15 1021 10 16.0934 0 0
9:35 am 09:35 Sunny 46 8 34 1 62 62 S 8 13 30.15 1021 10 16.0934 0 0
9:55 am 09:55 Sunny 48 9 36 2 62 62 SSW 5 7 30.12 1020 10 16.0934 0 0
10:15 am 10:15 Sunny 50 10 36 2 58 58 SW 3 6 30.12 1020 10 16.0934 0 0
10:35 am 10:35 Sunny 52 11 36 2 54 54 S 6 9 30.09 1019 10 16.0934 0 0
10:55 am 10:55 Sunny 54 12 36 2 51 51 S 3 6 30.09 1019 10 16.0934 0 0
11:15 am 11:15 Partly Cloudy 55 13 36 2 47 47 WSW 6 9 30.09 1019 10 16.0934 0 0
11:35 am 11:35 Partly Cloudy 57 14 37 3 48 48 SSW 5 7 30.09 1019 10 16.0934 0 0
11:55 am 11:55 Partly Cloudy 57 14 37 3 48 48 SSW 3 6 30.06 1018 10 16.0934 0 0
12:15 pm 12:15 Partly Cloudy 61 16 37 3 42 42 SW 6 9 30.06 1018 10 16.0934 0 0
12:35 pm 12:35 Sunny 63 17 37 3 39 39 SSW 7 11 30.03 1017 10 16.0934 0 0
12:55 pm 12:55 Partly Cloudy 64 18 37 3 37 37 SW 6 9 30 1016 10 16.0934 0 0
1:15 pm 13:15 Partly Cloudy 64 18 37 3 37 37 SSW 13 20 30 1016 10 16.0934 0 0
1:35 pm 13:35 Partly Cloudy 64 18 37 3 37 37 S 14 22 30 1016 10 16.0934 0 0
1:55 pm 13:55 Partly Cloudy 66 19 37 3 35 35 S 14 22 29.97 1015 10 16.0934 0 0
2:15 pm 14:15 Sunny 64 18 37 3 37 37 S 13 20 29.97 1015 10 16.0934 0 0
2:35 pm 14:35 Partly Cloudy 64 18 37 3 37 37 SSW 12 19 29.97 1015 10 16.0934 0 0
2:55 pm 14:55 Mostly Cloudy 64 18 39 4 40 40 S 8 13 29.97 1015 10 16.0934 0 0
3:15 pm 15:15 Mostly Cloudy 63 17 37 3 39 39 SSW 8 13 29.97 1015 10 16.0934 0 0
3:35 pm 15:35 Cloudy 63 17 39 4 42 42 S 10 17 29.94 1014 10 16.0934 0 0
3:55 pm 15:55 Cloudy 63 17 37 3 39 39 S 13 20 29.94 1014 10 16.0934 0 0
4:15 pm 16:15 Cloudy 61 16 39 4 45 45 undefined N/A 29.94 1014 10 16.0934 0 0
4:35 pm 16:35 Cloudy 61 16 39 4 45 45 S 9 15 29.94 1014 10 16.0934 0 0
4:55 pm 16:55 Cloudy 61 16 39 4 45 45 S 8 13 29.91 1013 10 16.0934 0 0
5:15 pm 17:15 Partly Cloudy 61 16 41 5 48 48 S 9 15 29.91 1013 10 16.0934 0 0
5:35 pm 17:35 Sunny 59 15 39 4 48 48 S 10 17 29.91 1013 10 16.0934 0 0
5:55 pm 17:55 Sunny 59 15 41 5 51 51 SSW 13 20 29.91 1013 10 16.0934 0 0
6:15 pm 18:15 Clear 57 14 39 4 51 51 SSW 9 15 29.94 1014 10 16.0934 0 0
6:35 pm 18:35 Clear 57 14 41 5 55 55 SSW 9 15 29.94 1014 10 16.0934 0 0
7:15 pm 19:15 Clear 55 13 41 5 59 59 SW 7 11 29.94 1014 10 16.0934 0 0
7:35 pm 19:35 Clear 55 13 41 5 59 59 SSW 6 9 29.94 1014 10 16.0934 0 0
7:55 pm 19:55 Clear 54 12 41 5 63 63 SSW 5 7 29.94 1014 10 16.0934 0 0
8:15 pm 20:15 Clear 54 12 41 5 63 63 SSW 6 9 29.94 1014 10 16.0934 0 0
8:35 pm 20:35 Clear 54 12 41 5 63 63 SSW 6 9 29.91 1013 10 16.0934 0 0
8:55 pm 20:55 Clear 54 12 41 5 63 63 S 5 7 29.91 1013 10 16.0934 0 0
9:15 pm 21:15 Clear 54 12 41 5 63 63 S 6 9 29.91 1013 10 16.0934 0 0
9:35 pm 21:35 Clear 52 11 41 5 67 67 SSW 6 9 29.91 1013 10 16.0934 0 0
9:55 pm 21:55 Clear 52 11 41 5 67 67 SSW 5 7 29.91 1013 10 16.0934 0 0
10:15 pm 22:15 Clear 52 11 41 5 67 67 SSW 5 7 29.91 1013 10 16.0934 0 0
10:35 pm 22:35 Clear 52 11 41 5 67 67 Calm 29.91 1013 10 16.0934 0 0
10:55 pm 22:55 Clear 52 11 41 5 67 67 S 5 7 29.91 1013 10 16.0934 0 0
11:15 pm 23:15 Clear 50 10 41 5 71 71 S 5 7 29.91 1013 10 16.0934 0 0
11:35 pm 23:35 Clear 50 10 41 5 71 71 SSW 3 6 29.91 1013 10 16.0934 0 0
11:55 pm 23:55 Clear 50 10 43 6 76 76 S 5 7 29.91 1013 10 16.0934 0 0

Powered by AerisWeather